Zurück zum Katalog

DELTA 2 R/B(2)

AktivGTO
NORAD 25136·ROCKET BODY·🇺🇸 United States

Gestartet Jan 10, 1998 von Cape Canaveral Space Force Station

Loading…

TLE

AlterndSource: Space-Track

Epoche: Sep 14, 2026, 14:04 UTC

1 25136U 98002C   26257.58619440 -.00000064  00000-0  00000-0 0  9996
2 25136  23.4984  76.0399 6983358 336.6824 270.6768  2.19857407230371

Verfolge DELTA 2 R/B(2) in Echtzeit mit AllMySat

Download on the App Store